START_TIME,STEP,MOV.,H8,t_acc.,H43,t_acc.,M25,t_acc.,H9,t_acc.
1979-07-17 06:00:29.520 ,0,1,0.,12.0,0.,12.0,0.,12.0,0.,12.0
1979-07-17 06:00:41.520 ,0,1,0.,12.0,0.,12.0,0.,12.0,0.,12.0
1979-07-17 06:00:53.520 ,4,1,0.,12.0,0.,12.0,0.,12.0,0.,12.0
1979-07-17 06:01:05.520 ,4,1,0.,12.0,0.,12.0,0.,12.0,0.,12.0
1979-07-17 06:01:17.520 ,7,1,1.,12.0,0.,12.0,0.,12.0,0.,12.0
1979-07-17 06:01:29.520 ,7,1,0.,12.0,0.,12.0,0.,12.0,0.,12.0
1979-07-17 06:01:41.520 ,3,1,0.,12.0,0.,12.0,0.,12.0,0.,12.0
1979-07-17 06:01:53.520 ,3,1,0.,12.0,0.,12.0,0.,12.0,0.,12.0
1979-07-17 06:02:05.510 ,0,1,0.,12.0,0.,12.0,0.,12.0,0.,12.0
1979-07-17 06:02:17.510 ,0,1,0.,12.0,0.,12.0,0.,12.0,0.,12.0
1979-07-17 06:02:29.510 ,4,1,0.,12.0,0.,12.0,0.,12.0,0.,12.0
1979-07-17 06:02:41.520 ,4,1,0.,12.0,0.,12.0,0.,12.0,0.,12.0
1979-07-17 06:02:53.510 ,7,1,0.,12.0,0.,12.0,0.,12.0,0.,12.0
1979-07-17 06:03:05.510 ,7,1,0.,12.0,0.,12.0,0.,12.0,0.,12.0
1979-07-17 06:03:17.510 ,3,1,0.,12.0,0.,12.0,0.,12.0,0.,12.0
1979-07-17 06:03:29.520 ,3,1,0.,12.0,0.,12.0,0.,12.0,0.,12.0
1979-07-17 06:03:41.510 ,0,1,0.,12.0,0.,12.0,0.,12.0,0.,12.0
1979-07-17 06:03:53.520 ,0,1,0.,12.0,0.,12.0,0.,12.0,0.,12.0
1979-07-17 06:04:05.510 ,4,1,0.,12.0,0.,12.0,0.,12.0,0.,12.0
1979-07-17 06:04:17.520 ,4,1,0.,12.0,0.,12.0,0.,12.0,0.,12.0
1979-07-17 06:04:29.520 ,7,1,0.,12.0,0.,12.0,0.,12.0,0.,12.0
1979-07-17 06:04:41.520 ,7,1,0.,12.0,0.,12.0,0.,12.0,0.,12.0
1979-07-17 06:04:53.520 ,3,1,0.,12.0,0.,12.0,0.,12.0,0.,12.0
1979-07-17 06:05:05.520 ,3,1,0.,12.0,0.,12.0,0.,12.0,0.,12.0
1979-07-17 06:05:17.520 ,0,1,0.,12.0,0.,12.0,0.,12.0,0.,12.0
1979-07-17 06:05:29.520 ,0,1,0.,12.0,0.,12.0,0.,12.0,0.,12.0
1979-07-17 06:05:41.520 ,0,0,1.,12.0,0.,12.0,0.,12.0,0.,12.0
1979-07-17 06:05:53.520 ,0,0,0.,12.0,0.,12.0,0.,12.0,0.,12.0
1979-07-17 06:06:05.520 ,0,0,0.,12.0,0.,12.0,0.,12.0,0.,12.0
1979-07-17 06:06:17.520 ,0,0,0.,12.0,0.,12.0,0.,12.0,0.,12.0
1979-07-17 06:06:29.520 ,5,0,0.,12.0,0.,12.0,0.,12.0,0.,12.0
1979-07-17 06:06:41.520 ,5,0,0.,12.0,0.,12.0,0.,12.0,0.,12.0
1979-07-17 06:06:53.520 ,5,0,0.,12.0,0.,12.0,0.,12.0,0.,12.0
1979-07-17 06:07:05.520 ,5,0,0.,12.0,0.,12.0,0.,12.0,0.,12.0
1979-07-17 06:07:17.520 ,4,0,0.,12.0,0.,12.0,0.,12.0,0.,12.0
1979-07-17 06:07:29.520 ,4,0,0.,12.0,0.,12.0,0.,12.0,0.,12.0
1979-07-17 06:07:41.520 ,4,0,0.,12.0,0.,12.0,0.,12.0,0.,12.0
1979-07-17 06:07:53.520 ,4,0,0.,12.0,0.,12.0,0.,12.0,0.,12.0
1979-07-17 06:08:05.520 ,3,0,0.,12.0,0.,12.0,0.,12.0,0.,12.0
1979-07-17 06:08:17.520 ,3,0,0.,12.0,0.,12.0,0.,12.0,0.,12.0
1979-07-17 06:08:29.520 ,3,0,0.,12.0,0.,12.0,0.,12.0,0.,12.0
1979-07-17 06:08:41.520 ,3,0,0.,12.0,0.,12.0,0.,12.0,0.,12.0
1979-07-17 06:08:53.520 ,2,0,0.,12.0,0.,12.0,0.,12.0,0.,12.0
1979-07-17 06:09:05.520 ,2,0,0.,12.0,0.,12.0,0.,12.0,0.,12.0
1979-07-17 06:09:17.520 ,2,0,0.,12.0,0.,12.0,0.,12.0,0.,12.0
1979-07-17 06:09:29.520 ,2,0,0.,12.0,0.,12.0,0.,12.0,0.,12.0
1979-07-17 06:09:41.520 ,1,0,0.,12.0,0.,12.0,0.,12.0,0.,12.0
1979-07-17 06:09:53.520 ,1,0,0.,12.0,0.,12.0,0.,12.0,0.,12.0
1979-07-17 06:10:05.520 ,1,0,1.,12.0,0.,12.0,0.,12.0,0.,12.0
1979-07-17 06:10:17.520 ,1,0,0.,12.0,0.,12.0,0.,12.0,0.,12.0
1979-07-17 06:10:29.520 ,0,0,0.,12.0,0.,12.0,0.,12.0,0.,12.0
1979-07-17 06:10:41.520 ,0,0,0.,12.0,0.,12.0,0.,12.0,0.,12.0
1979-07-17 06:10:53.520 ,0,0,0.,12.0,0.,12.0,0.,12.0,0.,12.0
1979-07-17 06:11:05.520 ,0,0,0.,12.0,0.,12.0,0.,12.0,0.,12.0
1979-07-17 06:11:17.520 ,0,0,0.,12.0,0.,12.0,0.,12.0,0.,12.0
1979-07-17 06:11:29.520 ,0,0,0.,12.0,0.,12.0,0.,12.0,0.,12.0
1979-07-17 06:11:41.520 ,0,0,0.,12.0,0.,12.0,0.,12.0,0.,12.0
1979-07-17 06:11:53.520 ,0,0,0.,12.0,0.,12.0,0.,12.0,0.,12.0
1979-07-17 06:12:05.520 ,1,0,0.,12.0,0.,12.0,0.,12.0,0.,12.0
1979-07-17 06:12:17.520 ,1,0,0.,12.0,0.,12.0,0.,12.0,0.,12.0
1979-07-17 06:12:29.520 ,1,0,0.,12.0,0.,12.0,0.,12.0,0.,12.0
1979-07-17 06:12:41.520 ,1,0,0.,12.0,0.,12.0,0.,12.0,0.,12.0
1979-07-17 06:12:53.520 ,2,0,1.,12.0,0.,12.0,0.,12.0,0.,12.0
1979-07-17 06:13:05.520 ,2,0,0.,12.0,0.,12.0,0.,12.0,0.,12.0
1979-07-17 06:13:17.520 ,2,0,0.,12.0,0.,12.0,0.,12.0,0.,12.0
1979-07-17 06:13:29.520 ,2,0,0.,12.0,0.,12.0,0.,12.0,0.,12.0
1979-07-17 06:13:41.520 ,3,0,0.,12.0,0.,12.0,0.,12.0,0.,12.0
1979-07-17 06:13:53.520 ,3,0,0.,12.0,0.,12.0,0.,12.0,0.,12.0
1979-07-17 06:14:05.520 ,3,0,0.,12.0,0.,12.0,0.,12.0,0.,12.0
1979-07-17 06:14:17.520 ,3,0,0.,12.0,0.,12.0,0.,12.0,0.,12.0
1979-07-17 06:14:29.520 ,4,0,0.,12.0,0.,12.0,0.,12.0,0.,12.0
1979-07-17 06:14:41.520 ,4,0,0.,12.0,0.,12.0,0.,12.0,0.,12.0
1979-07-17 06:14:53.520 ,4,0,0.,12.0,0.,12.0,0.,12.0,0.,12.0
1979-07-17 06:15:05.520 ,4,0,0.,12.0,0.,12.0,0.,12.0,0.,12.0
1979-07-17 06:15:17.520 ,5,0,0.,12.0,0.,12.0,0.,12.0,0.,12.0
1979-07-17 06:15:29.520 ,5,0,0.,12.0,0.,12.0,0.,12.0,0.,12.0
1979-07-17 06:15:41.520 ,5,0,0.,12.0,0.,12.0,0.,12.0,0.,12.0
1979-07-17 06:15:53.520 ,5,0,0.,12.0,0.,12.0,0.,12.0,0.,12.0
1979-07-17 06:16:05.520 ,6,0,0.,12.0,0.,12.0,0.,12.0,0.,12.0
1979-07-17 06:16:17.520 ,6,0,0.,12.0,0.,12.0,0.,12.0,0.,12.0
1979-07-17 06:16:29.520 ,6,0,0.,12.0,0.,12.0,0.,12.0,0.,12.0
1979-07-17 06:16:41.520 ,6,0,0.,12.0,0.,12.0,0.,12.0,0.,12.0
1979-07-17 06:16:53.520 ,7,0,0.,12.0,0.,12.0,0.,12.0,0.,12.0
1979-07-17 06:17:05.520 ,7,0,0.,12.0,0.,12.0,0.,12.0,0.,12.0
1979-07-17 06:17:17.520 ,7,0,0.,12.0,0.,12.0,0.,12.0,0.,12.0
1979-07-17 06:17:29.520 ,7,0,0.,12.0,0.,12.0,0.,12.0,0.,12.0
1979-07-17 06:17:41.520 ,7,0,0.,12.0,0.,12.0,0.,12.0,0.,12.0
1979-07-17 06:17:53.520 ,7,0,0.,12.0,0.,12.0,0.,12.0,0.,12.0
1979-07-17 06:18:05.520 ,7,0,0.,12.0,0.,12.0,0.,12.0,0.,12.0
1979-07-17 06:18:17.520 ,7,0,0.,12.0,0.,12.0,0.,12.0,0.,12.0
1979-07-17 06:18:29.510 ,6,0,0.,12.0,0.,12.0,0.,12.0,0.,12.0
1979-07-17 06:18:41.510 ,6,0,0.,12.0,0.,12.0,0.,12.0,0.,12.0
1979-07-17 06:18:53.510 ,6,0,0.,12.0,0.,12.0,0.,12.0,0.,12.0
1979-07-17 06:19:05.510 ,6,0,0.,12.0,0.,12.0,0.,12.0,0.,12.0
1979-07-17 06:19:17.510 ,5,0,0.,12.0,0.,12.0,0.,12.0,0.,12.0
1979-07-17 06:19:29.510 ,5,0,0.,12.0,0.,12.0,0.,12.0,0.,12.0
1979-07-17 06:19:41.510 ,5,0,0.,12.0,0.,12.0,0.,12.0,0.,12.0
1979-07-17 06:19:53.510 ,5,0,0.,12.0,0.,12.0,0.,12.0,0.,12.0
1979-07-17 06:20:05.510 ,4,0,0.,12.0,0.,12.0,0.,12.0,0.,12.0
1979-07-17 06:20:17.510 ,4,0,0.,12.0,0.,12.0,0.,12.0,0.,12.0
1979-07-17 06:20:29.510 ,4,0,0.,12.0,0.,12.0,0.,12.0,0.,12.0
1979-07-17 06:20:41.510 ,4,0,0.,12.0,0.,12.0,0.,12.0,0.,12.0
1979-07-17 06:20:53.510 ,3,0,0.,12.0,0.,12.0,0.,12.0,0.,12.0
1979-07-17 06:21:05.510 ,3,0,0.,12.0,0.,12.0,0.,12.0,0.,12.0
1979-07-17 06:21:17.510 ,3,0,0.,12.0,0.,12.0,0.,12.0,0.,12.0
1979-07-17 06:21:29.510 ,3,0,0.,12.0,0.,12.0,0.,12.0,0.,12.0
1979-07-17 06:21:41.510 ,2,0,0.,12.0,0.,12.0,0.,12.0,0.,12.0
1979-07-17 06:21:53.510 ,2,0,0.,12.0,0.,12.0,0.,12.0,0.,12.0
1979-07-17 06:22:05.510 ,2,0,0.,12.0,0.,12.0,0.,12.0,0.,12.0
1979-07-17 06:22:17.510 ,2,0,0.,12.0,0.,12.0,0.,12.0,0.,12.0
1979-07-17 06:22:29.510 ,1,0,0.,12.0,0.,12.0,0.,12.0,0.,12.0
1979-07-17 06:22:41.510 ,1,0,0.,12.0,0.,12.0,0.,12.0,0.,12.0
1979-07-17 06:22:53.510 ,1,0,0.,12.0,0.,12.0,0.,12.0,0.,12.0
1979-07-17 06:23:05.510 ,1,0,0.,12.0,0.,12.0,0.,12.0,0.,12.0
1979-07-17 06:23:17.510 ,0,0,0.,12.0,0.,12.0,0.,12.0,0.,12.0
1979-07-17 06:23:29.510 ,0,0,0.,12.0,0.,12.0,0.,12.0,0.,12.0
1979-07-17 06:23:41.510 ,0,0,0.,12.0,0.,12.0,0.,12.0,0.,12.0
1979-07-17 06:23:53.510 ,0,0,0.,12.0,0.,12.0,0.,12.0,0.,12.0
1979-07-17 06:24:05.510 ,0,0,0.,12.0,0.,12.0,0.,12.0,0.,12.0
1979-07-17 06:24:17.510 ,0,0,0.,12.0,0.,12.0,0.,12.0,0.,12.0
1979-07-17 06:24:29.510 ,0,0,0.,12.0,0.,12.0,0.,12.0,0.,12.0
1979-07-17 06:24:41.510 ,0,0,0.,12.0,0.,12.0,0.,12.0,0.,12.0
1979-07-17 06:24:53.510 ,1,0,0.,12.0,0.,12.0,0.,12.0,0.,12.0
1979-07-17 06:25:05.510 ,1,0,0.,12.0,0.,12.0,0.,12.0,0.,12.0
1979-07-17 06:25:17.510 ,1,0,0.,12.0,0.,12.0,0.,12.0,0.,12.0
1979-07-17 06:25:29.510 ,1,0,0.,12.0,0.,12.0,0.,12.0,0.,12.0
1979-07-17 06:25:41.510 ,2,0,0.,12.0,0.,12.0,0.,12.0,0.,12.0
1979-07-17 06:25:53.510 ,2,0,0.,12.0,0.,12.0,0.,12.0,0.,12.0
1979-07-17 06:26:05.510 ,2,0,0.,12.0,0.,12.0,0.,12.0,0.,12.0
1979-07-17 06:26:17.510 ,2,0,0.,12.0,0.,12.0,0.,12.0,0.,12.0
1979-07-17 06:26:29.510 ,3,0,0.,12.0,0.,12.0,0.,12.0,0.,12.0
1979-07-17 06:26:41.510 ,3,0,0.,12.0,0.,12.0,0.,12.0,0.,12.0
1979-07-17 06:26:53.510 ,3,0,0.,12.0,0.,12.0,0.,12.0,0.,12.0
1979-07-17 06:27:05.510 ,3,0,0.,12.0,1.,12.0,0.,12.0,0.,12.0
1979-07-17 06:27:17.510 ,4,0,0.,12.0,0.,12.0,0.,12.0,0.,12.0
1979-07-17 06:27:29.510 ,4,0,0.,12.0,0.,12.0,0.,12.0,0.,12.0
1979-07-17 06:27:41.510 ,4,0,0.,12.0,0.,12.0,0.,12.0,0.,12.0
1979-07-17 06:27:53.510 ,4,0,0.,12.0,0.,12.0,0.,12.0,0.,12.0
1979-07-17 06:28:05.510 ,5,0,0.,12.0,0.,12.0,0.,12.0,0.,12.0
1979-07-17 06:28:17.510 ,5,0,0.,12.0,0.,12.0,0.,12.0,0.,12.0
1979-07-17 06:28:29.510 ,5,0,0.,12.0,0.,12.0,0.,12.0,0.,12.0
1979-07-17 06:28:41.510 ,5,0,0.,12.0,0.,12.0,0.,12.0,0.,12.0
1979-07-17 06:28:53.510 ,6,0,0.,12.0,0.,12.0,0.,12.0,0.,12.0
1979-07-17 06:29:05.510 ,6,0,0.,12.0,0.,12.0,0.,12.0,0.,12.0
1979-07-17 06:29:17.510 ,6,0,0.,12.0,0.,12.0,0.,12.0,0.,12.0
1979-07-17 06:29:29.510 ,6,0,0.,12.0,0.,12.0,0.,12.0,0.,12.0
1979-07-17 06:29:41.510 ,7,0,0.,12.0,0.,12.0,0.,12.0,0.,12.0
1979-07-17 06:29:53.510 ,7,0,0.,12.0,0.,12.0,0.,12.0,0.,12.0
1979-07-17 06:30:05.510 ,7,0,0.,12.0,0.,12.0,0.,12.0,0.,12.0
1979-07-17 06:30:17.510 ,7,0,0.,12.0,0.,12.0,0.,12.0,0.,12.0
1979-07-17 06:30:29.510 ,7,0,0.,12.0,0.,12.0,0.,12.0,0.,12.0
1979-07-17 06:30:41.510 ,7,0,0.,12.0,0.,12.0,0.,12.0,0.,12.0
1979-07-17 06:30:53.510 ,7,0,0.,12.0,0.,12.0,0.,12.0,0.,12.0
1979-07-17 06:31:05.510 ,7,0,0.,12.0,0.,12.0,0.,12.0,0.,12.0
1979-07-17 06:31:17.510 ,6,0,0.,12.0,0.,12.0,0.,12.0,0.,12.0
1979-07-17 06:31:29.510 ,6,0,0.,12.0,0.,12.0,0.,12.0,0.,12.0
1979-07-17 06:31:41.510 ,6,0,0.,12.0,0.,12.0,0.,12.0,0.,12.0
1979-07-17 06:31:53.510 ,6,0,0.,12.0,0.,12.0,0.,12.0,0.,12.0
1979-07-17 06:32:05.510 ,5,0,0.,12.0,0.,12.0,0.,12.0,0.,12.0
1979-07-17 06:32:17.510 ,5,0,0.,12.0,0.,12.0,0.,12.0,0.,12.0
1979-07-17 06:32:29.510 ,5,0,0.,12.0,0.,12.0,0.,12.0,0.,12.0
1979-07-17 06:32:41.510 ,5,0,0.,12.0,0.,12.0,0.,12.0,0.,12.0
1979-07-17 06:32:53.510 ,4,0,0.,12.0,0.,12.0,0.,12.0,0.,12.0
1979-07-17 06:33:05.510 ,4,0,0.,12.0,0.,12.0,0.,12.0,0.,12.0
1979-07-17 06:33:17.510 ,4,0,0.,12.0,0.,12.0,0.,12.0,0.,12.0
1979-07-17 06:33:29.510 ,4,0,0.,12.0,0.,12.0,0.,12.0,0.,12.0
1979-07-17 06:33:41.510 ,3,0,0.,12.0,0.,12.0,0.,12.0,0.,12.0
1979-07-17 06:33:53.510 ,3,0,0.,12.0,0.,12.0,0.,12.0,0.,12.0
1979-07-17 06:34:05.510 ,3,0,0.,12.0,0.,12.0,0.,12.0,0.,12.0
1979-07-17 06:34:17.510 ,3,0,0.,12.0,0.,12.0,0.,12.0,0.,12.0
1979-07-17 06:34:29.510 ,2,0,0.,12.0,0.,12.0,0.,12.0,0.,12.0
1979-07-17 06:34:41.510 ,2,0,0.,12.0,0.,12.0,0.,12.0,0.,12.0
1979-07-17 06:34:53.510 ,2,0,0.,12.0,0.,12.0,0.,12.0,0.,12.0
1979-07-17 06:35:05.510 ,2,0,0.,12.0,0.,12.0,0.,12.0,0.,12.0
1979-07-17 06:35:17.510 ,1,0,0.,12.0,0.,12.0,0.,12.0,0.,12.0
1979-07-17 06:35:29.510 ,1,0,0.,12.0,0.,12.0,0.,12.0,0.,12.0
1979-07-17 06:35:41.510 ,1,0,0.,12.0,0.,12.0,0.,12.0,0.,12.0
1979-07-17 06:35:53.510 ,1,0,0.,12.0,0.,12.0,0.,12.0,0.,12.0
1979-07-17 06:36:05.510 ,0,0,0.,12.0,0.,12.0,0.,12.0,0.,12.0
1979-07-17 06:36:17.510 ,0,0,0.,12.0,0.,12.0,0.,12.0,0.,12.0
1979-07-17 06:36:29.510 ,0,0,0.,12.0,0.,12.0,0.,12.0,0.,12.0
1979-07-17 06:36:41.510 ,0,0,0.,12.0,0.,12.0,0.,12.0,0.,12.0
1979-07-17 06:36:53.510 ,0,0,0.,12.0,0.,12.0,0.,12.0,0.,12.0
1979-07-17 06:37:05.510 ,0,0,0.,12.0,0.,12.0,0.,12.0,0.,12.0
1979-07-17 06:37:17.510 ,0,0,0.,12.0,0.,12.0,0.,12.0,0.,12.0
1979-07-17 06:37:29.510 ,0,0,0.,12.0,0.,12.0,0.,12.0,0.,12.0
1979-07-17 06:37:41.510 ,1,0,0.,12.0,0.,12.0,0.,12.0,0.,12.0
1979-07-17 06:37:53.510 ,1,0,0.,12.0,0.,12.0,0.,12.0,0.,12.0
1979-07-17 06:38:05.510 ,1,0,0.,12.0,0.,12.0,0.,12.0,0.,12.0
1979-07-17 06:38:17.510 ,1,0,0.,12.0,0.,12.0,0.,12.0,0.,12.0
1979-07-17 06:38:29.510 ,0,0,0.,12.0,0.,12.0,0.,12.0,0.,12.0
1979-07-17 06:38:41.510 ,0,0,,0,,0,,0,,0
1979-07-17 06:38:53.510 ,0,0,,0,,0,,0,,0
1979-07-17 06:39:05.510 ,0,0,,0,,0,,0,,0
1979-07-17 06:38:56.510 ,0,0,0.,12.0,0.,12.0,0.,12.0,0.,12.0
1979-07-17 06:39:08.510 ,0,0,0.,12.0,0.,12.0,0.,12.0,0.,12.0
1979-07-17 06:39:17.510 ,3,0,0.,12.0,0.,12.0,0.,12.0,0.,12.0
1979-07-17 06:39:29.510 ,3,0,0.,12.0,0.,12.0,0.,12.0,0.,12.0
1979-07-17 06:39:41.510 ,3,0,0.,12.0,0.,12.0,0.,12.0,0.,12.0
1979-07-17 06:39:53.510 ,3,0,0.,12.0,0.,12.0,0.,12.0,0.,12.0
1979-07-17 06:40:05.510 ,4,0,0.,12.0,0.,12.0,0.,12.0,0.,12.0
1979-07-17 06:40:17.510 ,4,0,0.,12.0,0.,12.0,0.,12.0,0.,12.0
1979-07-17 06:40:29.510 ,4,0,0.,12.0,0.,12.0,0.,12.0,0.,12.0
1979-07-17 06:40:41.510 ,4,0,0.,12.0,0.,12.0,0.,12.0,0.,12.0
1979-07-17 06:40:53.510 ,5,0,0.,12.0,0.,12.0,0.,12.0,0.,12.0
1979-07-17 06:41:05.510 ,5,0,0.,12.0,0.,12.0,0.,12.0,0.,12.0
1979-07-17 06:41:17.510 ,5,0,0.,12.0,0.,12.0,0.,12.0,0.,12.0
1979-07-17 06:41:29.510 ,5,0,0.,12.0,0.,12.0,0.,12.0,0.,12.0
1979-07-17 06:41:41.510 ,6,0,0.,12.0,0.,12.0,0.,12.0,0.,12.0
1979-07-17 06:41:53.510 ,6,0,0.,12.0,0.,12.0,0.,12.0,0.,12.0
1979-07-17 06:42:05.510 ,6,0,0.,12.0,0.,12.0,0.,12.0,0.,12.0
1979-07-17 06:42:17.510 ,6,0,0.,12.0,0.,12.0,0.,12.0,0.,12.0
1979-07-17 06:42:29.510 ,7,0,0.,12.0,0.,12.0,0.,12.0,0.,12.0
1979-07-17 06:42:41.510 ,7,0,0.,12.0,0.,12.0,0.,12.0,0.,12.0
1979-07-17 06:42:53.510 ,7,0,0.,12.0,0.,12.0,0.,12.0,0.,12.0
1979-07-17 06:43:05.510 ,7,0,0.,12.0,0.,12.0,0.,12.0,0.,12.0
1979-07-17 06:43:17.510 ,3,1,0.,12.0,0.,12.0,0.,12.0,0.,12.0
1979-07-17 06:43:29.510 ,3,1,0.,12.0,0.,12.0,0.,12.0,0.,12.0
1979-07-17 06:43:41.510 ,0,1,0.,12.0,0.,12.0,0.,12.0,0.,12.0
1979-07-17 06:43:53.510 ,0,1,0.,12.0,0.,12.0,0.,12.0,0.,12.0
1979-07-17 06:44:05.510 ,4,1,0.,12.0,0.,12.0,0.,12.0,0.,12.0
1979-07-17 06:44:17.510 ,4,1,0.,12.0,0.,12.0,0.,12.0,0.,12.0
1979-07-17 06:44:29.510 ,7,1,0.,12.0,0.,12.0,0.,12.0,0.,12.0
1979-07-17 06:44:41.510 ,7,1,0.,12.0,0.,12.0,0.,12.0,0.,12.0
1979-07-17 06:44:53.510 ,3,1,0.,12.0,0.,12.0,0.,12.0,0.,12.0
1979-07-17 06:45:05.510 ,3,1,0.,12.0,0.,12.0,0.,12.0,0.,12.0
1979-07-17 06:45:17.510 ,0,1,0.,12.0,0.,12.0,0.,12.0,0.,12.0
1979-07-17 06:45:29.510 ,0,1,0.,12.0,0.,12.0,0.,12.0,0.,12.0
1979-07-17 06:45:41.510 ,4,1,0.,12.0,0.,12.0,0.,12.0,0.,12.0
1979-07-17 06:45:53.510 ,4,1,0.,12.0,0.,12.0,0.,12.0,0.,12.0
1979-07-17 06:46:05.510 ,7,1,0.,12.0,0.,12.0,0.,12.0,0.,12.0
1979-07-17 06:46:17.510 ,7,1,0.,12.0,0.,12.0,0.,12.0,0.,12.0
1979-07-17 06:46:29.510 ,3,1,0.,12.0,0.,12.0,0.,12.0,0.,12.0
1979-07-17 06:46:41.510 ,3,1,0.,12.0,0.,12.0,0.,12.0,0.,12.0
1979-07-17 06:46:53.510 ,0,1,0.,12.0,0.,12.0,0.,12.0,0.,12.0
1979-07-17 06:47:05.510 ,0,1,0.,12.0,0.,12.0,0.,12.0,0.,12.0
1979-07-17 06:47:17.510 ,4,1,0.,12.0,0.,12.0,0.,12.0,0.,12.0
1979-07-17 06:47:29.510 ,4,1,0.,12.0,0.,12.0,0.,12.0,0.,12.0
1979-07-17 06:47:41.510 ,7,1,0.,12.0,0.,12.0,0.,12.0,0.,12.0
1979-07-17 06:47:53.510 ,7,1,0.,12.0,0.,12.0,0.,12.0,0.,12.0
1979-07-17 06:48:05.510 ,3,1,0.,12.0,0.,12.0,0.,12.0,0.,12.0
1979-07-17 06:48:17.510 ,3,1,0.,12.0,0.,12.0,0.,12.0,0.,12.0
1979-07-17 06:48:29.510 ,1,1,0.,12.0,0.,12.0,0.,12.0,0.,12.0
1979-07-17 06:48:41.510 ,1,1,,0,,0,,0,,0
1979-07-17 06:48:53.510 ,4,1,0.,12.0,0.,12.0,0.,12.0,0.,12.0
1979-07-17 06:49:05.510 ,4,1,0.,12.0,0.,12.0,0.,12.0,0.,12.0
1979-07-17 06:49:17.510 ,7,1,0.,12.0,0.,12.0,0.,12.0,0.,12.0
1979-07-17 06:49:29.510 ,7,1,0.,12.0,0.,12.0,0.,12.0,0.,12.0
1979-07-17 06:49:41.510 ,3,1,0.,12.0,0.,12.0,0.,12.0,0.,12.0
1979-07-17 06:49:53.510 ,3,1,0.,12.0,0.,12.0,0.,12.0,0.,12.0
1979-07-17 06:50:05.510 ,0,1,0.,12.0,0.,12.0,0.,12.0,0.,12.0
1979-07-17 06:50:17.510 ,0,1,0.,12.0,0.,12.0,0.,12.0,0.,12.0
1979-07-17 06:50:29.510 ,4,1,0.,12.0,0.,12.0,0.,12.0,0.,12.0
1979-07-17 06:50:41.510 ,4,1,0.,12.0,0.,12.0,0.,12.0,0.,12.0
1979-07-17 06:50:53.510 ,7,1,0.,12.0,0.,12.0,0.,12.0,0.,12.0
1979-07-17 06:51:05.510 ,7,1,0.,12.0,0.,12.0,0.,12.0,0.,12.0
1979-07-17 06:51:17.510 ,3,1,0.,12.0,0.,12.0,0.,12.0,0.,12.0
1979-07-17 06:51:29.510 ,3,1,0.,12.0,0.,12.0,0.,12.0,0.,12.0
1979-07-17 06:51:41.510 ,0,1,0.,12.0,0.,12.0,0.,12.0,0.,12.0
1979-07-17 06:51:53.510 ,0,1,0.,12.0,0.,12.0,0.,12.0,0.,12.0
1979-07-17 06:52:05.510 ,4,1,0.,12.0,0.,12.0,0.,12.0,0.,12.0
1979-07-17 06:52:17.510 ,4,1,0.,12.0,0.,12.0,0.,12.0,0.,12.0
1979-07-17 06:52:29.510 ,7,1,0.,12.0,0.,12.0,0.,12.0,0.,12.0
1979-07-17 06:52:41.510 ,7,1,0.,12.0,0.,12.0,0.,12.0,0.,12.0
1979-07-17 06:52:53.510 ,3,1,0.,12.0,0.,12.0,0.,12.0,0.,12.0
1979-07-17 06:53:05.510 ,3,1,0.,12.0,0.,12.0,0.,12.0,0.,12.0
1979-07-17 06:53:17.510 ,0,1,0.,12.0,0.,12.0,0.,12.0,0.,12.0
1979-07-17 06:53:29.510 ,0,1,0.,12.0,0.,12.0,0.,12.0,0.,12.0
1979-07-17 06:53:41.510 ,0,0,0.,12.0,0.,12.0,0.,12.0,0.,12.0
1979-07-17 06:53:53.510 ,0,0,0.,12.0,0.,12.0,0.,12.0,0.,12.0
1979-07-17 06:54:05.510 ,0,0,0.,12.0,0.,12.0,0.,12.0,0.,12.0
1979-07-17 06:54:17.510 ,0,0,0.,12.0,0.,12.0,0.,12.0,0.,12.0
1979-07-17 06:54:29.510 ,5,0,0.,12.0,0.,12.0,0.,12.0,0.,12.0
1979-07-17 06:54:41.510 ,5,0,0.,12.0,0.,12.0,0.,12.0,0.,12.0
1979-07-17 06:54:53.510 ,5,0,0.,12.0,0.,12.0,0.,12.0,0.,12.0
1979-07-17 06:55:05.510 ,5,0,0.,12.0,0.,12.0,0.,12.0,0.,12.0
1979-07-17 06:55:17.510 ,4,0,1.,12.0,0.,12.0,0.,12.0,0.,12.0
1979-07-17 06:55:29.510 ,4,0,0.,12.0,0.,12.0,0.,12.0,0.,12.0
1979-07-17 06:55:41.510 ,4,0,0.,12.0,0.,12.0,0.,12.0,0.,12.0
1979-07-17 06:55:53.510 ,4,0,0.,12.0,0.,12.0,0.,12.0,0.,12.0
1979-07-17 06:56:05.510 ,3,0,0.,12.0,0.,12.0,0.,12.0,0.,12.0
1979-07-17 06:56:17.510 ,3,0,0.,12.0,0.,12.0,0.,12.0,0.,12.0
1979-07-17 06:56:29.510 ,3,0,0.,12.0,0.,12.0,0.,12.0,0.,12.0
1979-07-17 06:56:41.510 ,3,0,0.,12.0,0.,12.0,0.,12.0,0.,12.0
1979-07-17 06:56:53.510 ,2,0,0.,12.0,0.,12.0,0.,12.0,0.,12.0
1979-07-17 06:57:05.510 ,2,0,0.,12.0,0.,12.0,0.,12.0,0.,12.0
1979-07-17 06:57:17.510 ,2,0,1.,12.0,0.,12.0,0.,12.0,0.,12.0
1979-07-17 06:57:29.510 ,2,0,0.,12.0,0.,12.0,0.,12.0,0.,12.0
1979-07-17 06:57:41.510 ,1,0,0.,12.0,0.,12.0,0.,12.0,0.,12.0
1979-07-17 06:57:53.510 ,1,0,0.,12.0,0.,12.0,0.,12.0,0.,12.0
1979-07-17 06:58:05.510 ,1,0,0.,12.0,0.,12.0,0.,12.0,0.,12.0
1979-07-17 06:58:17.510 ,1,0,0.,12.0,0.,12.0,0.,12.0,0.,12.0
1979-07-17 06:58:29.510 ,0,0,0.,12.0,0.,12.0,0.,12.0,0.,12.0
1979-07-17 06:58:41.510 ,0,0,1.,12.0,0.,12.0,0.,12.0,0.,12.0
1979-07-17 06:58:53.510 ,0,0,0.,12.0,0.,12.0,0.,12.0,0.,12.0
1979-07-17 06:59:05.510 ,0,0,0.,12.0,0.,12.0,0.,12.0,0.,12.0
1979-07-17 06:59:17.510 ,0,0,0.,12.0,0.,12.0,0.,12.0,0.,12.0
1979-07-17 06:59:29.510 ,0,0,0.,12.0,0.,12.0,0.,12.0,0.,12.0
1979-07-17 06:59:41.510 ,0,0,0.,12.0,0.,12.0,0.,12.0,0.,12.0
1979-07-17 06:59:53.510 ,0,0,0.,12.0,0.,12.0,0.,12.0,0.,12.0
1979-07-17 07:00:05.510 ,1,0,0.,12.0,0.,12.0,0.,12.0,0.,12.0
1979-07-17 07:00:17.510 ,1,0,0.,12.0,0.,12.0,0.,12.0,0.,12.0
1979-07-17 07:00:29.510 ,1,0,0.,12.0,0.,12.0,0.,12.0,0.,12.0
1979-07-17 07:00:41.510 ,1,0,0.,12.0,0.,12.0,0.,12.0,0.,12.0
1979-07-17 07:00:53.510 ,2,0,0.,12.0,0.,12.0,0.,12.0,0.,12.0
1979-07-17 07:01:05.510 ,2,0,0.,12.0,0.,12.0,0.,12.0,0.,12.0
1979-07-17 07:01:17.510 ,2,0,0.,12.0,0.,12.0,0.,12.0,0.,12.0
1979-07-17 07:01:29.510 ,2,0,0.,12.0,0.,12.0,0.,12.0,0.,12.0
1979-07-17 07:01:41.510 ,3,0,0.,12.0,0.,12.0,0.,12.0,0.,12.0
1979-07-17 07:01:53.510 ,3,0,0.,12.0,0.,12.0,0.,12.0,0.,12.0
1979-07-17 07:02:05.510 ,3,0,0.,12.0,0.,12.0,0.,12.0,0.,12.0
1979-07-17 07:02:17.510 ,3,0,0.,12.0,0.,12.0,0.,12.0,0.,12.0
1979-07-17 07:02:29.510 ,4,0,0.,12.0,0.,12.0,0.,12.0,0.,12.0
1979-07-17 07:02:41.510 ,4,0,0.,12.0,0.,12.0,0.,12.0,0.,12.0
1979-07-17 07:02:53.510 ,4,0,0.,12.0,0.,12.0,0.,12.0,0.,12.0
1979-07-17 07:03:05.510 ,4,0,0.,12.0,0.,12.0,0.,12.0,0.,12.0
1979-07-17 07:03:17.510 ,5,0,0.,12.0,0.,12.0,0.,12.0,0.,12.0
1979-07-17 07:03:29.510 ,5,0,0.,12.0,0.,12.0,0.,12.0,0.,12.0
1979-07-17 07:03:41.510 ,5,0,0.,12.0,0.,12.0,0.,12.0,0.,12.0
1979-07-17 07:03:53.510 ,5,0,0.,12.0,0.,12.0,0.,12.0,0.,12.0
1979-07-17 07:04:05.510 ,6,0,0.,12.0,0.,12.0,0.,12.0,0.,12.0
1979-07-17 07:04:17.510 ,6,0,0.,12.0,0.,12.0,0.,12.0,0.,12.0
1979-07-17 07:04:29.510 ,6,0,0.,12.0,0.,12.0,0.,12.0,0.,12.0
1979-07-17 07:04:41.510 ,6,0,0.,12.0,0.,12.0,0.,12.0,0.,12.0
1979-07-17 07:04:53.510 ,7,0,0.,12.0,0.,12.0,0.,12.0,0.,12.0
1979-07-17 07:05:05.510 ,7,0,0.,12.0,0.,12.0,0.,12.0,0.,12.0
1979-07-17 07:05:17.510 ,7,0,0.,12.0,0.,12.0,0.,12.0,0.,12.0
1979-07-17 07:05:29.510 ,7,0,0.,12.0,0.,12.0,0.,12.0,0.,12.0
1979-07-17 07:05:41.510 ,7,0,0.,12.0,0.,12.0,0.,12.0,0.,12.0
1979-07-17 07:05:53.510 ,7,0,0.,12.0,0.,12.0,0.,12.0,0.,12.0
1979-07-17 07:06:05.510 ,7,0,0.,12.0,0.,12.0,0.,12.0,0.,12.0
1979-07-17 07:06:17.510 ,7,0,0.,12.0,0.,12.0,0.,12.0,0.,12.0
1979-07-17 07:06:29.510 ,6,0,0.,12.0,0.,12.0,0.,12.0,0.,12.0
1979-07-17 07:06:41.510 ,6,0,0.,12.0,0.,12.0,0.,12.0,0.,12.0
1979-07-17 07:06:53.510 ,6,0,0.,12.0,0.,12.0,0.,12.0,0.,12.0
1979-07-17 07:07:05.510 ,6,0,0.,12.0,0.,12.0,0.,12.0,0.,12.0
1979-07-17 07:07:17.510 ,5,0,0.,12.0,0.,12.0,0.,12.0,0.,12.0
1979-07-17 07:07:29.510 ,5,0,0.,12.0,0.,12.0,0.,12.0,0.,12.0
1979-07-17 07:07:41.510 ,5,0,0.,12.0,0.,12.0,0.,12.0,0.,12.0
1979-07-17 07:07:53.510 ,5,0,0.,12.0,0.,12.0,0.,12.0,0.,12.0
1979-07-17 07:08:05.510 ,4,0,0.,12.0,0.,12.0,0.,12.0,0.,12.0
1979-07-17 07:08:17.510 ,4,0,0.,12.0,0.,12.0,0.,12.0,0.,12.0
1979-07-17 07:08:29.510 ,4,0,0.,12.0,0.,12.0,0.,12.0,0.,12.0
1979-07-17 07:08:41.510 ,4,0,0.,12.0,0.,12.0,0.,12.0,0.,12.0
1979-07-17 07:08:53.510 ,3,0,0.,12.0,0.,12.0,0.,12.0,0.,12.0
1979-07-17 07:09:05.510 ,3,0,0.,12.0,0.,12.0,0.,12.0,0.,12.0
1979-07-17 07:09:17.510 ,0,0,0.,12.0,0.,12.0,0.,12.0,0.,12.0
1979-07-17 07:09:29.510 ,0,0,0.,12.0,0.,12.0,0.,12.0,0.,12.0
1979-07-17 07:09:45.110 ,0,0,0.,12.0,0.,12.0,0.,12.0,0.,12.0
1979-07-17 07:09:57.110 ,0,0,0.,12.0,0.,12.0,0.,12.0,0.,12.0
1979-07-17 07:10:05.510 ,0,0,0.,12.0,0.,12.0,0.,12.0,0.,12.0
1979-07-17 07:10:17.510 ,0,0,0.,12.0,0.,12.0,0.,12.0,0.,12.0
1979-07-17 07:10:29.510 ,1,0,0.,12.0,0.,12.0,0.,12.0,0.,12.0
1979-07-17 07:10:41.510 ,1,0,0.,12.0,0.,12.0,0.,12.0,0.,12.0
1979-07-17 07:10:53.510 ,1,0,0.,12.0,0.,12.0,0.,12.0,0.,12.0
1979-07-17 07:11:05.510 ,1,0,0.,12.0,0.,12.0,0.,12.0,0.,12.0
1979-07-17 07:11:17.510 ,0,0,0.,12.0,0.,12.0,0.,12.0,0.,12.0
1979-07-17 07:11:29.510 ,0,0,0.,12.0,0.,12.0,0.,12.0,0.,12.0
1979-07-17 07:11:41.510 ,0,0,0.,12.0,0.,12.0,0.,12.0,0.,12.0
1979-07-17 07:11:53.510 ,0,0,0.,12.0,0.,12.0,0.,12.0,0.,12.0
1979-07-17 07:12:05.510 ,0,0,0.,12.0,0.,12.0,0.,12.0,0.,12.0
1979-07-17 07:12:17.510 ,0,0,0.,12.0,0.,12.0,0.,12.0,0.,12.0
1979-07-17 07:12:29.510 ,0,0,0.,12.0,0.,12.0,0.,12.0,0.,12.0
1979-07-17 07:12:41.510 ,0,0,0.,12.0,0.,12.0,0.,12.0,0.,12.0
1979-07-17 07:12:53.510 ,1,0,0.,12.0,0.,12.0,0.,12.0,0.,12.0
1979-07-17 07:13:05.510 ,1,0,0.,12.0,0.,12.0,0.,12.0,0.,12.0
1979-07-17 07:13:17.510 ,1,0,0.,12.0,0.,12.0,0.,12.0,0.,12.0
1979-07-17 07:13:29.510 ,1,0,0.,12.0,0.,12.0,0.,12.0,0.,12.0
1979-07-17 07:13:41.510 ,2,0,0.,12.0,0.,12.0,0.,12.0,0.,12.0
1979-07-17 07:13:53.510 ,2,0,0.,12.0,0.,12.0,0.,12.0,0.,12.0
1979-07-17 07:14:05.510 ,2,0,0.,12.0,0.,12.0,0.,12.0,0.,12.0
1979-07-17 07:14:17.510 ,2,0,0.,12.0,0.,12.0,0.,12.0,0.,12.0
1979-07-17 07:14:29.510 ,3,0,0.,12.0,0.,12.0,0.,12.0,0.,12.0
1979-07-17 07:14:41.510 ,3,0,0.,12.0,0.,12.0,0.,12.0,0.,12.0
1979-07-17 07:14:53.510 ,3,0,0.,12.0,0.,12.0,0.,12.0,0.,12.0
1979-07-17 07:15:05.510 ,3,0,0.,12.0,0.,12.0,0.,12.0,0.,12.0
1979-07-17 07:15:17.510 ,4,0,0.,12.0,0.,12.0,0.,12.0,0.,12.0
1979-07-17 07:15:29.510 ,4,0,0.,12.0,0.,12.0,0.,12.0,0.,12.0
1979-07-17 07:15:41.510 ,4,0,0.,12.0,0.,12.0,0.,12.0,0.,12.0
1979-07-17 07:15:53.510 ,4,0,0.,12.0,0.,12.0,0.,12.0,0.,12.0
1979-07-17 07:16:05.510 ,5,0,0.,12.0,0.,12.0,0.,12.0,0.,12.0
1979-07-17 07:16:17.510 ,5,0,0.,12.0,0.,12.0,0.,12.0,0.,12.0
1979-07-17 07:16:29.510 ,5,0,0.,12.0,0.,12.0,0.,12.0,0.,12.0
1979-07-17 07:16:41.510 ,5,0,0.,12.0,0.,12.0,0.,12.0,0.,12.0
1979-07-17 07:16:53.510 ,6,0,0.,12.0,0.,12.0,0.,12.0,0.,12.0
1979-07-17 07:17:05.510 ,6,0,0.,12.0,0.,12.0,0.,12.0,0.,12.0
1979-07-17 07:17:17.510 ,6,0,0.,12.0,0.,12.0,0.,12.0,0.,12.0